Power by www.initrio-led.comwww.initrio-led.comwww.initrio-led.comwww.initrio-led.comwww.initrio-led.com

HONDA HRV CLUB - ศูนย์กลางสถิติ

สถิติทั่วไป

จำนวนสมาชิกทั้งหมด:
480
จำนวนตอบกระทู้ทั้งหมด:
193217
จำนวนหัวข้อทั้งหมด:
163796
จำนวนหมวดหมู่ทั้งหมด:
14
ผู้ใช้งานที่ออนไลน์:
106
ออนไลน์มากที่สุด:
263 - 1 พ.ย. 2017, 08:38:26 น.
ออนไลน์วันนี้:
114
เพจวิวทั้งหมด:
4977374
สมาชิกเฉลี่ยต่อวัน:
0.93
ตอบกระทู้เฉลี่ยต่อวัน:
170.44
หัวข้อเฉลี่ยต่อวัน:
143.57
จำนวนบอร์ดทั้งหมด:
30
สมาชิกล่าสุด:
takydeS9T
ออนไลน์เฉลี่ยต่อวัน:
50.47
อัตราส่วนระหว่างชายกับหญิง:
2.3:1
เฉลี่ยเพจวิวต่อวัน:
4362.29

หัวข้อยอดนิยม 10 หัวข้อแรก (ผู้ตอบสูงสุด)

[[ ขาย ]] จำหน่ายถาดท้ายรถยนต์ HONDA HRV และผ้ายางเข้ารูป ราคาโรงงาน !!!!!!
1591
[รับซื้อรถมือสอง]ราคาสูงที่สุด ทุกรุ่นทุกยี่ห้อ คุยง่ายพร้อมบริการถึงที่ครับ
944
!!!! แรงสุดทั่วราชอาณาจักร ดูแคมเปญสุดเล้าใจพร้อมดาวน์โหลดโปรชัวร์ได้ที่นี้ !!!!
631
!!! รับซื้อ รถ สด แรง เร็ว IN AND OUT car ซื้อทุกรุ่น ทุกยี่ห้อ พร้อมโปรโมชั่นรถ
612
สีแต้มรถ HONDA HRV ขวดละ 170.- (imixpaint) และอุปกรณ์งานแต้มสีรถ
541
พรมปูพื้นรถยนต์เข้ารูป ผ้ายางปูพื้นรถ ถาดท้าย พรม5D คิ้วกันสาดเข้ารูปเพียง600-!!
456
ขายผ้าคลุมรถHRV กันน้ำ กันแดดคุณภาพเยี่ยม [รับสั่งตัดงานพิเศษ ทุกแบบ] พร้อมส่ง
440
ล้อป้ายแดง Hrv 17 พร้อมยาง
432
"พรมกระดุม พรมดักฝุ่น สูตรดั้งเดิม ทนมากกกก Mr.CARPET"
432
***Saw Palmetto สำหรับชาว HR-V ที่มีปัญหาผมร่วงผมบาง ไม่ส่งผลต่อสมรรถภาพทางเพศ**
387

หัวข้อยอดนิยม 10 หัวข้อแรก (ผู้อ่านสูงสุด)

[[ ขาย ]] จำหน่ายถาดท้ายรถยนต์ HONDA HRV และผ้ายางเข้ารูป ราคาโรงงาน !!!!!!
30338
พรมปูพื้นรถยนต์เข้ารูป ผ้ายางปูพื้นรถ ถาดท้าย พรม5D คิ้วกันสาดเข้ารูปเพียง600-!!
12880
ของแต่ง HR-V มาแว้ว คลิกเลย!!!!!!!!!!!!!! ราคากันเอง ฟรีติดตั้ัง
12439
ล้อ ยาง max ใหม่หรือป้ายแดง HONDA HRV หลายชุด ขายถูก ติดตั้งหรือส่งทั่วไทยคร้าบ
9486
[รับซื้อรถมือสอง]ราคาสูงที่สุด ทุกรุ่นทุกยี่ห้อ คุยง่ายพร้อมบริการถึงที่ครับ
9268
!!!! แรงสุดทั่วราชอาณาจักร ดูแคมเปญสุดเล้าใจพร้อมดาวน์โหลดโปรชัวร์ได้ที่นี้ !!!!
8456
"พรมกระดุม พรมดักฝุ่น สูตรดั้งเดิม ทนมากกกก Mr.CARPET"
8307
!!! รับซื้อ รถ สด แรง เร็ว IN AND OUT car ซื้อทุกรุ่น ทุกยี่ห้อ พร้อมโปรโมชั่นรถ
7493
ขายผ้าคลุมรถHRV กันน้ำ กันแดดคุณภาพเยี่ยม [รับสั่งตัดงานพิเศษ ทุกแบบ] พร้อมส่ง
7280
ล้างเเอร์รถยนต์ 500 บาท ซอยหลวงพ่อโต บางพลี พร้อมบริการ ซ่อมเเอร์ ขัดไฟหน้า เเบต
6405

เริ่มหัวข้อใหม่มากที่สุด

ออนไลน์นานที่สุด

montien
1วัน 10ชั่วโมง 28นาที
aircardok
1วัน 7ชั่วโมง 50นาที
้hairman
1วัน 5ชั่วโมง 36นาที
MEE-GUSTO
1วัน 23นาที
Teetawat
22ชั่วโมง 15นาที
salestray
19ชั่วโมง 48นาที
mr_carpet
17ชั่วโมง 56นาที
pengeng
16ชั่วโมง 55นาที
ostylegolfzz
15ชั่วโมง 50นาที
lekcar88
14ชั่วโมง 37นาที

รายละเอียดระบบย้อนหลัง

สรุปประจำเดือน หัวข้อใหม่ ตอบกระทู้ใหม่ สมาชิกใหม่ ออนไลน์มากที่สุด เพจวิว
* 2018 80493 93368 203 232 2424300
พฤษภาคม 2018 13085 15061 19 204 406785
เมษายน 2018 17848 20631 45 209 566747
มีนาคม 2018 18137 20841 54 198 528713
กุมภาพันธ์ 2018 15830 18384 36 232 442874
2018-02-01 565 717 1 131 16544
2018-02-02 430 570 4 140 13887
2018-02-03 546 612 2 191 15994
2018-02-04 625 706 0 153 17072
2018-02-05 439 545 0 148 14060
2018-02-06 536 628 1 133 15232
2018-02-07 454 544 1 149 14004
2018-02-08 423 506 3 132 12112
2018-02-09 480 554 0 136 13349
2018-02-10 464 533 0 232 13302
2018-02-11 526 590 2 167 15515
2018-02-12 723 806 1 140 18679
2018-02-13 613 694 0 143 15970
2018-02-14 497 568 0 137 13312
2018-02-15 338 412 1 142 10370
2018-02-16 590 694 2 137 16527
2018-02-17 589 666 0 125 15165
2018-02-18 666 736 1 182 18892
2018-02-19 667 751 1 153 18618
2018-02-20 606 697 2 150 24431
2018-02-21 623 743 1 154 17865
2018-02-22 576 709 2 135 16075
2018-02-23 655 755 4 145 18454
2018-02-24 694 769 0 126 17753
2018-02-25 586 643 2 113 14795
2018-02-26 609 695 1 34 15057
2018-02-27 635 737 2 33 14760
2018-02-28 675 804 2 34 15080
มกราคม 2018 15593 18451 49 200 479181
* 2017 83030 94959 188 263 2330439
ธันวาคม 2017 21075 23350 21 195 569151
พฤศจิกายน 2017 20293 22242 20 263 530288
2017-11-01 643 693 2 263 19137
2017-11-02 616 674 0 201 25599
2017-11-03 634 680 0 185 17827
2017-11-04 653 701 0 146 15873
2017-11-05 665 712 0 120 16233
2017-11-06 683 748 0 125 16326
2017-11-07 619 698 0 124 15301
2017-11-08 646 721 1 179 16547
2017-11-09 629 720 0 246 17527
2017-11-10 634 711 0 167 17127
2017-11-11 640 678 0 145 15761
2017-11-12 658 692 2 124 15538
2017-11-13 640 686 0 122 16525
2017-11-14 608 677 0 135 17472
2017-11-15 670 744 3 200 16829
2017-11-16 678 742 0 206 17506
2017-11-17 696 761 0 163 17441
2017-11-18 641 691 0 120 16018
2017-11-19 652 706 1 124 15974
2017-11-20 662 750 0 139 16855
2017-11-21 704 788 1 129 17600
2017-11-22 766 846 0 130 19357
2017-11-23 823 920 0 191 22231
2017-11-24 727 809 3 182 18625
2017-11-25 739 819 0 146 19055
2017-11-26 692 744 0 147 16815
2017-11-27 710 771 1 145 17594
2017-11-28 747 811 5 156 19118
2017-11-29 744 810 1 150 19006
2017-11-30 674 739 0 189 17471
ตุลาคม 2017 17994 19931 16 195 473501
กันยายน 2017 16631 18357 22 160 414879
สิงหาคม 2017 6944 7765 34 86 177610
2017-08-01 0 11 0 20 251
2017-08-02 1 24 1 20 6353
2017-08-03 2 20 1 20 3776
2017-08-04 1 18 1 24 313
2017-08-05 0 35 1 35 582
2017-08-06 1 14 0 31 346
2017-08-07 1 13 1 30 340
2017-08-08 0 20 2 26 449
2017-08-09 5 20 3 30 428
2017-08-10 4 21 3 26 1549
2017-08-11 3 22 2 29 471
2017-08-12 1 26 0 48 574
2017-08-13 0 13 0 45 524
2017-08-14 3 17 1 42 605
2017-08-15 0 29 1 44 612
2017-08-16 1 28 0 48 639
2017-08-17 2 27 1 48 707
2017-08-18 1 24 1 39 601
2017-08-19 1 12 0 43 369
2017-08-20 2 15 0 21 1512
2017-08-21 2 27 0 69 988
2017-08-22 4 29 1 53 796
2017-08-23 912 938 7 62 21182
2017-08-24 1116 1167 1 67 24640
2017-08-25 957 1014 2 66 20527
2017-08-26 832 864 0 60 18031
2017-08-27 780 819 1 58 17058
2017-08-28 636 683 2 86 15417
2017-08-29 525 569 1 79 11902
2017-08-30 679 720 0 59 15289
2017-08-31 472 526 0 53 10779
กรกฎาคม 2017 20 472 20 24 11154
มิถุนายน 2017 13 489 10 21 19526
2017-06-01 1 27 0 16 1243
2017-06-02 1 17 0 13 194
2017-06-03 1 25 1 14 269
2017-06-04 0 24 1 13 267
2017-06-05 1 30 2 17 305
2017-06-06 0 13 0 19 184
2017-06-07 0 12 0 20 182
2017-06-08 0 13 0 18 193
2017-06-09 0 7 0 21 375
2017-06-10 1 25 0 19 361
2017-06-11 0 17 0 13 1182
2017-06-12 1 11 0 13 180
2017-06-13 0 14 0 19 190
2017-06-14 0 11 0 16 9807
2017-06-15 0 31 0 19 301
2017-06-16 0 12 0 13 206
2017-06-17 1 25 1 12 252
2017-06-18 0 7 0 12 129
2017-06-19 1 12 0 13 153
2017-06-20 1 15 0 15 228
2017-06-21 0 11 0 12 1120
2017-06-22 1 13 1 16 249
2017-06-23 0 8 1 14 323
2017-06-24 0 20 1 15 215
2017-06-25 0 21 0 16 356
2017-06-26 1 16 1 15 333
2017-06-27 0 13 1 19 185
2017-06-28 0 11 0 13 150
2017-06-29 1 13 0 15 182
2017-06-30 1 15 0 15 212
พฤษภาคม 2017 6 227 0 19 8523
2017-05-11 1 6 0 11 593
2017-05-12 1 8 0 9 548
2017-05-13 0 4 0 12 1174
2017-05-14 0 7 0 13 181
2017-05-15 0 5 0 13 474
2017-05-16 0 12 0 13 343
2017-05-17 0 10 0 13 1307
2017-05-18 0 8 0 14 240
2017-05-19 1 11 0 10 170
2017-05-20 0 8 0 15 364
2017-05-21 0 20 0 15 213
2017-05-22 0 13 0 16 818
2017-05-23 1 10 0 9 612
2017-05-24 0 8 0 18 183
2017-05-25 0 9 0 13 214
2017-05-26 0 10 0 12 162
2017-05-27 1 10 0 11 113
2017-05-28 0 8 0 18 192
2017-05-29 1 16 0 19 199
2017-05-30 0 22 0 14 195
2017-05-31 0 22 0 13 228
เมษายน 2017 11 223 5 109 13439
2017-04-01 0 12 1 34 2116
2017-04-02 3 24 1 52 530
2017-04-03 0 20 0 41 505
2017-04-04 0 23 0 109 2241
2017-04-05 3 15 1 96 1097
2017-04-06 0 34 0 74 862
2017-04-07 2 22 2 69 1119
2017-04-08 2 14 0 62 944
2017-04-09 0 21 0 64 1792
2017-04-10 1 20 0 68 825
2017-04-11 0 18 0 60 538
2017-04-12 0 0 0 38 504
2017-04-13 0 0 0 39 312
2017-04-14 0 0 0 2 36
2017-04-15 0 0 0 0 15
2017-04-16 0 0 0 1 1
2017-04-17 0 0 0 1 1
2017-04-18 0 0 0 1 1
มีนาคม 2017 15 719 10 74 42902
กุมภาพันธ์ 2017 12 574 18 95 27236
มกราคม 2017 16 610 12 92 42230
* 2016 254 5653 534 175 198775
ธันวาคม 2016 7 629 6 56 19786
2016-12-01 0 15 0 56 917
2016-12-02 0 15 1 38 750
2016-12-03 0 20 0 38 466
2016-12-04 1 27 1 37 447
2016-12-05 0 30 0 50 778
2016-12-06 0 30 0 52 622
2016-12-07 0 15 1 44 543
2016-12-08 0 19 0 48 560
2016-12-09 0 14 0 50 912
2016-12-10 0 11 0 39 485
2016-12-11 0 16 0 42 637
2016-12-12 0 16 0 47 1544
2016-12-13 0 23 0 45 740
2016-12-14 0 29 1 45 631
2016-12-15 3 26 1 40 703
2016-12-16 1 30 0 24 441
2016-12-17 0 28 0 16 793
2016-12-18 0 32 0 15 550
2016-12-19 0 15 0 14 209
2016-12-20 0 18 0 15 426
2016-12-21 0 25 0 25 309
2016-12-22 0 29 0 20 497
2016-12-23 0 21 0 17 1309
2016-12-24 0 23 0 17 475
2016-12-25 0 30 1 53 345
2016-12-26 1 17 0 46 622
2016-12-27 0 19 0 49 649
2016-12-28 0 15 0 50 615
2016-12-29 0 12 0 42 650
2016-12-30 0 5 0 51 577
2016-12-31 1 4 0 52 584
พฤศจิกายน 2016 13 568 10 52 24760
2016-11-01 1 22 0 46 644
2016-11-02 0 15 0 30 4125
2016-11-03 0 34 1 26 2519
2016-11-04 1 33 0 31 660
2016-11-05 0 35 0 37 558
2016-11-06 0 16 1 32 436
2016-11-07 1 37 0 35 594
2016-11-08 0 21 0 47 517
2016-11-09 5 28 1 22 1484
2016-11-10 1 19 1 22 353
2016-11-11 0 17 1 32 702
2016-11-12 0 26 0 42 478
2016-11-13 0 13 0 38 631
2016-11-14 0 13 1 28 368
2016-11-15 0 21 0 45 486
2016-11-16 2 17 0 52 870
2016-11-17 0 17 0 44 557
2016-11-18 0 10 0 42 561
2016-11-19 0 14 0 45 745
2016-11-20 0 11 1 40 1525
2016-11-21 1 13 1 45 902
2016-11-22 0 21 0 38 680
2016-11-23 0 10 1 41 476
2016-11-24 0 15 0 42 636
2016-11-25 0 11 0 50 510
2016-11-26 0 16 0 43 626
2016-11-27 0 14 0 36 516
2016-11-28 0 17 0 42 513
2016-11-29 1 17 1 44 735
2016-11-30 0 15 0 39 353
ตุลาคม 2016 13 601 11 69 20621
กันยายน 2016 9 690 14 54 20567
สิงหาคม 2016 48 673 21 50 21743
กรกฎาคม 2016 72 591 225 175 38662
มิถุนายน 2016 7 441 43 32 13927
2016-06-01 0 15 3 18 405
2016-06-02 0 12 3 15 200
2016-06-03 0 10 1 17 1215
2016-06-04 0 12 1 17 277
2016-06-05 0 13 0 13 294
2016-06-06 0 20 0 22 286
2016-06-07 0 12 0 15 254
2016-06-08 0 16 1 22 285
2016-06-09 0 13 0 19 293
2016-06-10 0 15 1 20 468
2016-06-11 0 12 2 19 219
2016-06-12 0 9 1 17 250
2016-06-13 0 11 1 20 1295
2016-06-14 0 19 1 21 252
2016-06-15 1 18 1 24 305
2016-06-16 0 13 1 24 430
2016-06-17 0 15 6 32 452
2016-06-18 0 10 0 23 679
2016-06-19 0 12 2 21 645
2016-06-20 0 14 2 15 675
2016-06-21 2 19 2 16 361
2016-06-22 1 18 2 25 372
2016-06-23 2 22 1 20 317
2016-06-24 0 15 4 31 1535
2016-06-25 0 17 0 25 333
2016-06-26 1 15 2 17 249
2016-06-27 0 16 3 21 372
2016-06-28 0 17 0 17 438
2016-06-29 0 15 1 22 328
2016-06-30 0 16 1 22 443
พฤษภาคม 2016 65 449 46 26 11172
เมษายน 2016 5 264 48 19 7599
2016-04-01 0 6 2 15 251
2016-04-02 0 9 3 14 234
2016-04-03 0 7 4 15 192
2016-04-04 0 9 5 15 270
2016-04-05 0 6 2 12 161
2016-04-06 0 10 4 19 301
2016-04-07 0 10 2 18 373
2016-04-08 1 10 3 18 265
2016-04-09 0 8 1 17 202
2016-04-10 0 7 0 13 153
2016-04-11 1 9 2 12 173
2016-04-12 1 7 1 12 164
2016-04-13 0 6 1 12 129
2016-04-14 0 4 1 11 144
2016-04-15 0 3 1 11 188
2016-04-16 0 9 1 14 183
2016-04-17 0 6 0 13 144
2016-04-18 0 13 2 15 202
2016-04-19 1 12 1 14 223
2016-04-20 1 10 1 19 376
2016-04-21 0 11 2 18 427
2016-04-22 0 13 0 14 210
2016-04-23 0 10 1 13 1181
2016-04-24 0 8 0 13 175
2016-04-25 0 10 2 13 197
2016-04-26 0 15 0 12 309
2016-04-27 0 12 3 16 218
2016-04-28 0 11 1 14 228
2016-04-29 0 10 1 11 169
2016-04-30 0 3 1 14 157
มีนาคม 2016 1 269 35 27 7042
2016-03-01 0 8 2 13 170
2016-03-02 0 8 3 17 175
2016-03-03 0 9 3 10 147
2016-03-04 0 10 2 12 161
2016-03-05 0 11 0 11 164
2016-03-06 0 8 1 8 132
2016-03-07 0 8 1 14 157
2016-03-08 0 10 2 12 220
2016-03-09 0 7 0 14 223
2016-03-10 0 9 0 11 162
2016-03-11 0 9 0 15 187
2016-03-12 0 9 2 17 260
2016-03-13 0 7 0 9 153
2016-03-14 0 6 1 18 194
2016-03-15 0 11 2 24 571
2016-03-16 0 10 0 27 976
2016-03-17 0 8 2 15 221
2016-03-18 0 10 1 18 244
2016-03-19 0 6 0 13 188
2016-03-20 0 5 0 14 129
2016-03-21 0 8 1 17 178
2016-03-22 0 9 1 14 160
2016-03-23 1 12 1 19 226
2016-03-24 0 10 1 14 231
2016-03-25 0 9 1 12 160
2016-03-26 0 8 0 17 174
2016-03-27 0 7 3 17 195
2016-03-28 0 10 0 14 181
2016-03-29 0 11 2 19 340
2016-03-30 0 8 3 13 177
2016-03-31 0 8 0 13 186
กุมภาพันธ์ 2016 6 268 35 29 7327
2016-02-01 0 8 0 21 231
2016-02-02 2 15 4 18 620
2016-02-03 1 11 1 17 304
2016-02-04 0 9 0 17 246
2016-02-05 1 12 1 12 263
2016-02-06 0 8 1 21 271
2016-02-07 1 9 1 15 247
2016-02-08 0 13 1 17 449
2016-02-09 0 12 3 29 674
2016-02-10 0 11 3 24 329
2016-02-11 0 10 2 19 184
2016-02-12 0 9 2 18 228
2016-02-13 0 9 0 7 149
2016-02-14 0 10 0 13 151
2016-02-15 0 6 2 12 127
2016-02-16 1 9 1 14 195
2016-02-17 0 10 1 15 220
2016-02-18 0 7 2 13 160
2016-02-19 0 9 1 11 173
2016-02-20 0 10 1 15 228
2016-02-21 0 8 1 12 205
2016-02-22 0 5 2 19 173
2016-02-23 0 6 1 12 164
2016-02-24 0 7 0 14 171
2016-02-25 0 11 0 20 187
2016-02-26 0 6 0 12 174
2016-02-27 0 9 3 16 308
2016-02-28 0 10 0 12 289
2016-02-29 0 9 1 14 207
มกราคม 2016 8 210 40 18 5569
* 2015 35 492 137 43 23860
ธันวาคม 2015 3 149 26 19 5083
พฤศจิกายน 2015 3 107 12 43 3970
ตุลาคม 2015 3 34 13 12 2397
2015-10-01 0 1 0 6 44
2015-10-02 0 0 0 7 38
2015-10-03 0 0 0 6 42
2015-10-04 0 2 0 5 69
2015-10-05 0 1 0 8 52
2015-10-06 0 1 0 6 72
2015-10-07 1 2 1 6 65
2015-10-08 0 2 0 9 77
2015-10-09 0 1 0 5 87
2015-10-10 0 1 0 8 54
2015-10-11 0 2 1 9 86
2015-10-12 0 1 0 7 125
2015-10-13 0 2 2 12 116
2015-10-14 0 1 0 4 61
2015-10-15 0 1 1 9 87
2015-10-16 0 1 0 8 102
2015-10-17 0 0 0 0 39
2015-10-18 1 3 1 12 103
2015-10-19 0 1 1 7 89
2015-10-20 0 1 0 7 72
2015-10-21 0 1 0 8 64
2015-10-22 1 2 0 5 56
2015-10-23 0 0 0 12 123
2015-10-24 0 1 0 6 53
2015-10-25 0 1 0 9 52
2015-10-26 0 3 1 12 158
2015-10-27 0 0 2 9 108
2015-10-28 0 0 0 12 54
2015-10-29 0 1 0 11 90
2015-10-30 0 1 0 5 87
2015-10-31 0 0 3 7 72
กันยายน 2015 2 33 18 12 1923
สิงหาคม 2015 1 35 13 10 1436
กรกฎาคม 2015 1 33 7 9 1695
มิถุนายน 2015 2 38 12 10 1943
พฤษภาคม 2015 1 30 21 10 1886
เมษายน 2015 19 33 15 12 3527

TOP